Preview of NWS' New Version of Forecast
This preview is not operational and should not be used for support decisions.

Regional Weather Roundup (RWR)

Issued by National Weather Service (NWS)

                            
000
ASUS44 KMEG 201510
RWRTN 
TENNESSEE HOURLY STATE WEATHER ROUNDUP
NATIONAL WEATHER SERVICE MEMPHIS TN
1000 AM CDT WED MAR 20 2019

TNZ002-004-019-021-049-052-054-088>092-201600-
WEST TENNESSEE
  
CITY           SKY/WX    TMP DP  RH WIND       PRES   REMARKS
MEMPHIS INTL   FAIR      57  28  33 S7        30.23F                  
NWS MEMPHIS      N/A     55 N/A N/A MISG        N/A                   
JACKSON        FAIR      55  27  34 S12       30.25R                  
DYERSBURG      FAIR      53  31  42 S7        30.23F                  
SOMERVILLE     SUNNY     55  27  33 S7        30.22F                  
COVINGTON      SUNNY     54  30  40 SW8       30.23S                  
UNION CITY     SUNNY     54  30  40 SW9       30.21S                  
BOLIVAR        SUNNY     54  27  35 S9        30.24R                  
PARIS          SUNNY     55  27  33 S9G16     30.22S                  
HUNTINGDON     SUNNY     55  27  33 SW8       30.23R                  
LEXINGTON      SUNNY     52  30  43 SW5       30.24S                  
SAVANNAH       SUNNY     55  30  38 S7        30.24S                  
$$

TNZ008-025-027-028-033-062-065-066-201600-
NORTH MIDDLE TENNESSEE
  
CITY           SKY/WX    TMP DP  RH WIND       PRES   REMARKS
NASHVILLE      FAIR      53  24  32 SE7       30.25F                  
DICKSON        SUNNY     54  21  28 SW12      30.22S                  
CLARKSVILLE    FAIR      53  26  35 S12       30.23S                  
LEBANON        SUNNY     52  25  35 SW10      30.24S                  
SMYRNA         FAIR      51  30  44 S6        30.27S                  
MURFREESBORO   SUNNY     52  27  37 S7        30.24F                  
COOKEVILLE     SUNNY     52  27  37 VRB5      30.25S                  
LIVINGSTON     SUNNY     52  21  30 SW9       30.23R                  
GALLATIN       SUNNY     48  30  49 S7        30.28F                  
CROSSVILLE     FAIR      50  22  33 VRB5      30.25F                  
ROCKWOOD       SUNNY     48  21  34 VRB7      30.25F                  
$$

TNZ061-075-076-078-094-096-097-201600-
SOUTH MIDDLE TENNESSEE
  
CITY           SKY/WX    TMP DP  RH WIND       PRES   REMARKS
LAWRENCEBURG   SUNNY     54  27  35 S6        30.25F                  
LEWISBURG      SUNNY     55  23  28 S10       30.25S                  
FAYETTEVILLE   SUNNY     52  27  37 S9        30.26R                  
TULLAHOMA      SUNNY     52  25  35 S7G14     30.25S                  
WINCHESTER     SUNNY     54  23  30 S9        30.26S                  
MCMINNVILLE    SUNNY     50  30  46 SW5       30.25F                  
COLUMBIA       SUNNY     50  34  53 CALM      30.23F                  
SHELBYVILLE    SUNNY     52  28  40 S9        30.26S                  
$$

TNZ017-018-042-046-047-201600-
NORTHEAST TENNESSEE
  
CITY           SKY/WX    TMP DP  RH WIND       PRES   REMARKS
TRI CITIES     FAIR      46  24  42 E3        30.29S                  
ELIZABETHTON   FAIR      48  23  37 VRB5      30.28S                  
GREENEVILLE    SUNNY     48  23  37 CALM      30.27S                  
$$

TNZ012-013-036-069-073-074-201600-
CENTRAL EAST TENNESSEE
  
CITY           SKY/WX    TMP DP  RH WIND       PRES   REMARKS
KNOXVILLE      FAIR      48  27  44 SE3       30.28F                  
OAK RIDGE      FAIR      48  27  44 W3        30.30F                  
DOWNTOWN KNOXV SUNNY     46  30  53 CALM      30.30S                  
GATLINBURG     SUNNY     48  28  46 CALM      30.28F                  
MORRISTOWN     SUNNY     46  23  39 CALM      30.27S                  
JACKSBORO      SUNNY     46  25  42 CALM      30.30F                  
$$

TNZ083-085-099-201600-
SOUTHEAST TENNESSEE
  
CITY           SKY/WX    TMP DP  RH WIND       PRES   REMARKS
CHATTANOOGA    FAIR      48  27  44 S3        30.30S                  
DAYTON         SUNNY     46  30  53 CALM      30.29F HAZE             
$$

SKY/WX REPORTED AS FAIR MEANS FEW OR NO CLOUDS BELOW
12 THOUSAND FEET.